Iron Mountain, MI

12:17 PM CDT on May 23, 2018 (GMT -0500)
Ford

Weather History for KIMT - November, 2011

Change the Weather History Date:

Tuesday, November 22, 2011

  Actual Average Record
Temperature  
Mean Temperature 28 °F -  
Max Temperature 36 °F 36 °F 62 °F (2012)
Min Temperature 21 °F 20 °F 0 °F (2008)
Degree Days  
Heating Degree Days 36    
Moisture  
Dew Point 27 °F    
Average Humidity 91    
Maximum Humidity 100    
Minimum Humidity 81    
Precipitation  
Precipitation 0.00 in - - ()
Sea Level Pressure  
Sea Level Pressure 30.10 in    
Wind  
Wind Speed 1 mph (SE)    
Max Wind Speed 5 mph    
Max Gust Speed -    
Visibility 4 miles    
Events Fog    
Averages and records for this station are not official NWS values.
T = Trace of Precipitation, MM = Missing Value Source: NWS Daily Summary

Daily Weather History Graph

Daily Weather History Graph

Search for Another Location

Airport or City:

Astronomy

Nov. 22, 2011 Rise Set
Actual Time 7:01 AM CST 4:15 PM CST
Civil Twilight 6:28 AM CST 4:47 PM CST
Nautical Twilight 5:52 AM CST 5:24 PM CST
Astronomical Twilight 5:16 AM CST 6:00 PM CST
Moon 3:45 AM CST (11/22) 2:19 PM CST (11/22)
Length of Visible Light 10h 19m
Length of Day
9h 13m
Waning Crescent, 9% of the Moon is Illuminated
Nov 22
Waning Crescent
Nov 25
New
Dec 2
First Quarter
Dec 10
Full
Dec 17
Last Quarter

Hourly Weather History & Observations

Time (CST) Temp. Windchill Dew Point Humidity Pressure Visibility Wind Dir Wind Speed Gust Speed Precip Events Conditions
12:54 AM 28.9 °F 23.9 °F 26.1 °F 89% 30.34 in 6.0 mi SSE 4.6 mph - N/A   Overcast
1:54 AM 28.9 °F - 25.0 °F 85% 30.33 in 7.0 mi Calm Calm - N/A   Overcast
2:54 AM 28.9 °F - 26.1 °F 89% 30.31 in 7.0 mi Calm Calm - N/A   Overcast
3:54 AM 28.9 °F - 26.1 °F 89% 30.30 in 7.0 mi Calm Calm - N/A   Overcast
4:54 AM 28.9 °F - 26.1 °F 89% 30.28 in 7.0 mi Calm Calm - N/A   Overcast
5:54 AM 28.0 °F - 26.1 °F 92% 30.25 in 6.0 mi Calm Calm - N/A   Overcast
6:54 AM 28.9 °F - 26.1 °F 89% 30.25 in 7.0 mi Calm Calm - N/A   Overcast
7:54 AM 28.9 °F - 27.0 °F 92% 30.26 in 5.0 mi Calm Calm - N/A   Overcast
8:54 AM 30.0 °F 25.2 °F 27.0 °F 88% 30.24 in 6.0 mi East 4.6 mph - N/A   Overcast
10:54 AM 33.1 °F - 28.9 °F 85% 30.18 in 7.0 mi Calm Calm - N/A   Overcast
11:54 AM 34.0 °F 31.0 °F 28.9 °F 82% 30.16 in 8.0 mi SSE 3.5 mph - N/A   Overcast
12:26 PM 35.6 °F 32.8 °F 30.2 °F 81% 30.10 in 9.0 mi SSE 3.5 mph - N/A   Overcast
1:54 PM 36.0 °F - 30.9 °F 82% 30.11 in 10.0 mi Calm Calm - N/A   Overcast
2:19 PM 35.6 °F - 30.2 °F 81% 30.04 in 10.0 mi Calm Calm - N/A   Overcast
2:54 PM 36.0 °F - 30.9 °F 82% 30.08 in 10.0 mi Calm Calm - N/A   Overcast
3:54 PM 35.1 °F - 30.9 °F 85% 30.07 in 10.0 mi Calm Calm - N/A   Overcast
4:54 PM 33.1 °F - 30.0 °F 89% 30.07 in 10.0 mi Calm Calm - N/A   Scattered Clouds
5:54 PM 30.0 °F - 28.9 °F 96% 30.07 in 6.0 mi Calm Calm - N/A   Mostly Cloudy
6:34 PM 28.4 °F - 26.6 °F 93% 30.03 in 2.5 mi Calm Calm - N/A   Scattered Clouds
6:45 PM 28.4 °F - 26.6 °F 93% 30.03 in 2.0 mi Calm Calm - N/A   Mostly Cloudy
6:52 PM 28.4 °F - 28.4 °F 100% 30.03 in 1.0 mi Calm Calm - N/A   Mostly Cloudy
6:54 PM 28.9 °F - 28.0 °F 96% 30.08 in 1.0 mi Calm Calm - N/A   Mostly Cloudy
7:06 PM 28.4 °F - 28.4 °F 100% 30.03 in 3.0 mi Calm Calm - N/A   Overcast
7:54 PM 30.0 °F - 28.9 °F 96% 30.08 in 5.0 mi Calm Calm - N/A   Overcast
8:52 PM 28.4 °F - 26.6 °F 93% 30.02 in 1.8 mi Calm Calm - N/A   Scattered Clouds
9:01 PM 30.2 °F - 26.6 °F 86% 30.01 in 1.0 mi Calm Calm - N/A   Mist
9:08 PM 26.6 °F - 26.6 °F 100% 30.01 in 0.5 mi Calm Calm - N/A Fog Light Freezing Fog
9:10 PM 26.6 °F - 26.6 °F 100% 30.01 in 0.2 mi Calm Calm - N/A Fog Light Freezing Fog
9:30 PM 26.6 °F - 26.6 °F 100% 30.01 in 1.0 mi Calm Calm - N/A   Mist
9:45 PM 24.8 °F - 23.0 °F 93% 30.01 in 0.5 mi Calm Calm - N/A Fog Light Freezing Fog
9:54 PM 24.1 °F - 23.0 °F 96% 30.06 in 0.2 mi Calm Calm - N/A Fog Light Freezing Fog
10:36 PM 24.8 °F - 23.0 °F 93% 30.00 in 0.5 mi Calm Calm - N/A Fog Light Freezing Fog
10:46 PM 24.8 °F - 23.0 °F 93% 30.00 in 1.2 mi Calm Calm - N/A   Partly Cloudy
10:51 PM 24.8 °F - 23.0 °F 93% 30.00 in 0.8 mi Calm Calm - N/A   Mist
10:54 PM 24.1 °F - 23.0 °F 96% 30.05 in 0.5 mi Calm Calm - N/A Fog Light Freezing Fog
11:02 PM 24.8 °F - 23.0 °F 93% 30.00 in 0.2 mi Calm Calm - N/A Fog Light Freezing Fog
11:29 PM 21.2 °F - 21.2 °F 100% 30.01 in 0.2 mi Calm Calm - N/A Fog Light Freezing Fog
11:54 PM 23.0 °F - 21.9 °F 96% 30.06 in 0.2 mi Calm Calm - N/A Fog Light Freezing Fog